Biloxi, MS

4:18 AM CST on February 13, 2016 (GMT -0600)
Keesler Air Force Base

Weather History for KBIX - November, 2011

Change the Weather History Date:

Monday, November 28, 2011

  Actual Average Record
Temperature  
Mean Temperature 46 °F -  
Max Temperature 50 °F 68 °F 78 °F (1960)
Min Temperature 39 °F 49 °F 30 °F (1950)
Degree Days  
Heating Degree Days 20    
Moisture  
Dew Point 40 °F    
Average Humidity 81    
Maximum Humidity 88    
Minimum Humidity 66    
Precipitation  
Precipitation 0.00 in - - ()
Sea Level Pressure  
Sea Level Pressure 30.00 in    
Wind  
Wind Speed 11 mph (NW)    
Max Wind Speed 16 mph    
Max Gust Speed 24 mph    
Visibility 10 miles    
Events Rain    
Averages and records for this station are not official NWS values.
T = Trace of Precipitation, MM = Missing Value Source: NWS Daily Summary

Daily Weather History Graph

Daily Weather History Graph

Search for Another Location

Airport or City:

Trip Planner

Search our weather history database for the weather conditions in past years. The results will help you decide how hot, cold, wet, or windy it might be!

Date:

Astronomy

Nov. 28, 2011 Rise Set
Actual Time 6:32 AM CST 4:54 PM CST
Civil Twilight 6:06 AM CST 5:20 PM CST
Nautical Twilight 5:36 AM CST 5:50 PM CST
Astronomical Twilight 5:07 AM CST 6:19 PM CST
Moon 9:43 AM CST (11/28) 8:37 PM CST (11/28)
Length of Visible Light 11h 14m
Length of Day
10h 22m
Waxing Crescent, 16% of the Moon is Illuminated
Nov 28
Waxing Crescent
Dec 2
First Quarter
Dec 10
Full
Dec 17
Last Quarter
Dec 24
New

Hourly Weather History & Observations

Time (CST) Temp. Windchill Dew Point Humidity Pressure Visibility Wind Dir Wind Speed Gust Speed Precip Events Conditions
12:04 AM 48.2 °F - 42.8 °F 82% 30.01 in 10.0 mi NW 12.7 mph - N/A   Overcast
12:38 AM 46.4 °F 39.8 °F 42.8 °F 87% 30.00 in 10.0 mi NNW 16.1 mph - N/A   Overcast
12:55 AM 46.8 °F - 41.7 °F 83% 30.00 in 10.0 mi NW 10.4 mph 20.7 mph N/A   Scattered Clouds
1:07 AM 46.4 °F 42.4 °F 42.8 °F 87% 30.01 in 10.0 mi NW 8.1 mph - N/A   Mostly Cloudy
1:55 AM 46.4 °F 40.7 °F 43.0 °F 88% 30.00 in 10.0 mi WNW 12.7 mph - N/A   Overcast
2:08 AM 46.4 °F 41.1 °F 42.8 °F 87% 30.00 in 10.0 mi NW 11.5 mph 18.4 mph N/A   Overcast
2:26 AM 46.4 °F 41.5 °F 42.8 °F 87% 30.00 in 10.0 mi NW 10.4 mph - N/A   Overcast
2:55 AM 45.7 °F 39.8 °F 42.1 °F 87% 30.00 in 10.0 mi NW 12.7 mph - N/A   Overcast
3:19 AM 46.4 °F 41.5 °F 41.0 °F 81% 29.99 in 10.0 mi NW 10.4 mph 17.3 mph N/A   Overcast
3:40 AM 44.6 °F 38.4 °F 41.0 °F 87% 29.99 in 10.0 mi NW 12.7 mph 21.9 mph N/A   Overcast
3:42 AM 44.6 °F 38.8 °F 41.0 °F 87% 29.99 in 10.0 mi NW 11.5 mph 21.9 mph N/A   Overcast
3:44 AM 44.6 °F 38.8 °F 41.0 °F 87% 29.99 in 10.0 mi NW 11.5 mph 21.9 mph N/A   Overcast
3:55 AM 45.1 °F 38.8 °F 41.0 °F 85% 29.99 in 10.0 mi NW 13.8 mph - N/A   Overcast
4:02 AM 44.6 °F 39.7 °F 41.0 °F 87% 29.99 in 10.0 mi NW 9.2 mph 17.3 mph N/A   Overcast
4:55 AM 44.8 °F 38.7 °F 40.3 °F 84% 29.99 in 10.0 mi NW 12.7 mph - N/A   Overcast
5:55 AM 44.6 °F 38.8 °F 41.2 °F 88% 30.00 in 10.0 mi NW 11.5 mph - N/A   Mostly Cloudy
6:35 AM 44.6 °F 40.2 °F 41.0 °F 87% 30.00 in 10.0 mi NW 8.1 mph - N/A   Overcast
6:40 AM 44.6 °F 39.7 °F 41.0 °F 87% 30.00 in 10.0 mi NW 9.2 mph - N/A   Overcast
6:42 AM 44.6 °F 38.8 °F 41.0 °F 87% 30.00 in 10.0 mi NW 11.5 mph - N/A   Overcast
6:54 AM 44.6 °F 38.8 °F 41.0 °F 87% 30.00 in 10.0 mi NW 11.5 mph - N/A   Overcast
6:55 AM 44.6 °F 38.8 °F 41.2 °F 88% 30.00 in 10.0 mi NW 11.5 mph - N/A   Overcast
7:00 AM 44.6 °F 38.4 °F 41.0 °F 87% 30.01 in 10.0 mi NW 12.7 mph 18.4 mph N/A   Mostly Cloudy
7:01 AM 44.6 °F 38.1 °F 41.0 °F 87% 30.01 in 10.0 mi NW 13.8 mph 18.4 mph N/A   Mostly Cloudy
7:03 AM 44.6 °F 38.1 °F 41.0 °F 87% 30.01 in 10.0 mi NW 13.8 mph - N/A   Mostly Cloudy
7:55 AM 45.1 °F 39.5 °F 39.7 °F 81% 30.01 in 10.0 mi WNW 11.5 mph - N/A   Scattered Clouds
8:01 AM 44.6 °F 39.2 °F 39.2 °F 81% 30.01 in 10.0 mi NW 10.4 mph - N/A   Mostly Cloudy
8:55 AM 45.5 °F 40.3 °F 39.7 °F 80% 30.02 in 10.0 mi WNW 10.4 mph 18.4 mph N/A   Overcast
9:55 AM 48.6 °F - 39.9 °F 72% 30.02 in 10.0 mi NW 11.5 mph - N/A   Mostly Cloudy
9:56 AM 48.2 °F - 39.2 °F 71% 30.02 in 10.0 mi NW 11.5 mph - N/A   Mostly Cloudy
9:59 AM 48.2 °F - 39.2 °F 71% 30.01 in 10.0 mi WNW 11.5 mph - N/A   Mostly Cloudy
10:05 AM 46.4 °F 41.5 °F 39.2 °F 76% 30.01 in 10.0 mi NW 10.4 mph 17.3 mph N/A   Mostly Cloudy
10:27 AM 50.0 °F - 39.2 °F 66% 30.01 in 10.0 mi WNW 9.2 mph - N/A   Mostly Cloudy
10:55 AM 47.7 °F - 40.1 °F 75% 30.01 in 10.0 mi NW 12.7 mph 18.4 mph N/A   Mostly Cloudy
11:27 AM 48.2 °F - 41.0 °F 76% 29.99 in 10.0 mi WNW 15.0 mph 24.2 mph N/A   Mostly Cloudy
11:35 AM 48.2 °F - 41.0 °F 76% 29.99 in 10.0 mi West 9.2 mph 24.2 mph N/A Rain Light Rain
11:46 AM 48.2 °F - 39.2 °F 71% 29.99 in 10.0 mi WNW 9.2 mph - N/A   Mostly Cloudy
11:55 AM 48.2 °F - 38.1 °F 68% 29.98 in 10.0 mi NW 13.8 mph 18.4 mph 0.00 in   Mostly Cloudy
12:55 PM 48.4 °F - 37.6 °F 66% 29.96 in 10.0 mi WNW 9.2 mph 20.7 mph N/A   Mostly Cloudy
1:55 PM 48.2 °F - 37.2 °F 66% 29.95 in 10.0 mi West 9.2 mph - N/A   Mostly Cloudy
2:55 PM 47.3 °F - 37.6 °F 69% 29.96 in 6.0 mi NW 10.4 mph - 0.00 in Rain Light Rain
3:11 PM 44.6 °F 39.2 °F 39.2 °F 81% 29.96 in 8.0 mi West 10.4 mph - N/A Rain Light Rain
3:20 PM 42.8 °F 37.0 °F 39.2 °F 87% 29.96 in 10.0 mi West 10.4 mph - N/A   Mostly Cloudy
3:55 PM 44.8 °F 40.4 °F 39.0 °F 80% 29.97 in 10.0 mi WNW 8.1 mph - 0.00 in   Mostly Cloudy
4:27 PM 44.6 °F 37.8 °F 39.2 °F 81% 29.98 in 10.0 mi NW 15.0 mph 21.9 mph N/A Rain Light Rain
4:45 PM 42.8 °F 38.6 °F 39.2 °F 87% 29.98 in 10.0 mi WNW 6.9 mph - N/A   Mostly Cloudy
4:55 PM 43.3 °F 38.6 °F 38.1 °F 82% 29.98 in 10.0 mi WNW 8.1 mph - 0.00 in   Mostly Cloudy
5:55 PM 42.8 °F 37.5 °F 37.8 °F 82% 29.99 in 10.0 mi WNW 9.2 mph - N/A   Scattered Clouds
6:55 PM 42.6 °F 38.4 °F 38.8 °F 86% 30.00 in 10.0 mi WNW 6.9 mph - N/A   Overcast
7:55 PM 42.8 °F 38.0 °F 38.7 °F 85% 30.03 in 10.0 mi WNW 8.1 mph - N/A   Overcast
8:55 PM 42.4 °F 36.5 °F 36.1 °F 78% 30.04 in 10.0 mi WNW 10.4 mph 20.7 mph N/A   Overcast
9:55 PM 42.1 °F 38.4 °F 33.3 °F 71% 30.04 in 10.0 mi West 5.8 mph - N/A   Overcast
10:55 PM 41.4 °F 37.6 °F 33.3 °F 73% 30.04 in 10.0 mi West 5.8 mph - N/A   Partly Cloudy
11:55 PM 39.9 °F 35.8 °F 33.6 °F 78% 30.02 in 10.0 mi West 5.8 mph - N/A   Clear